Location: Nicosia
(35.1670°N, 33.3670°E)
Time: 13:56:30
(UTC+02:00)

Tiangong - Pass Details

Date: 13 October 2022
Orbit: 386 x 394 km, 41.5° (Epoch: 04 December)

Event Time Altitude Azimuth Distance (km) Brightness Sun altitude
Rises 19:56:23 0° 291° (WNW) 2,284 3.1 -21.6°
Reaches altitude 10° 19:58:41 10° 305° (NW) 1,432 1.6 -22.1°
Enters shadow 20:00:46 24° 342° (NNW) 878 -0.1 -22.5°
